Location: El Chorro
(10.0985°N, 67.3542°W)
Time: 19:18:40
(UTC+00:00)

Cosmos 2058 - Pass Details

Date: 15 November 2025
Orbit: 529 x 541 km, 82.5° (Epoch: 06 December)

Event Time Altitude Azimuth Distance (km) Brightness Sun altitude
Rises 22:50:15 0° 9° (N) 2,686 6.1 -11.7°
Reaches altitude 10° 22:52:32 10° 18° (NNE) 1,797 5.1 -12.2°
Maximum altitude 22:56:10 35° 85° (E) 877 3.3 -13.1°
Drops below altitude 10° 22:59:49 10° 152° (SSE) 1,801 5.3 -13.9°
Sets 23:02:05 0° 161° (SSE) 2,693 6.3 -14.5°
